Location: Unspecified
(45.3999°N, 88.1269°W)
Time: 05:29:55
(UTC-05:00)

Resurs 1-4 Rocket - Visible Passes

Search period start: 27 June 2017 00:00
Search period end: 07 July 2017 00:00
Orbit: 801 x 813 km, 98.5° (Epoch: 26 June)

Date Brightness Start Highest point End Pass type
(mag) Time Alt. Az. Time Alt. Az. Time Alt. Az.
27 Jun 4.6 01:40:29 10° ENE 01:41:26 10° E 01:42:23 10° E visible
27 Jun 2.2 03:16:46 10° NNE 03:22:07 79° ESE 03:26:30 15° S visible
28 Jun 2.8 02:52:19 10° NNE 02:57:30 48° E 03:01:36 16° S visible
29 Jun 3.5 02:28:07 10° NE 02:32:47 30° E 02:36:43 13° SSE visible
29 Jun 2.8 04:07:45 10° N 04:12:41 40° WNW 04:17:35 10° SW visible
30 Jun 4.2 02:04:18 10° NE 02:07:58 19° E 02:11:36 10° SE visible
30 Jun 2.3 03:42:58 10° N 03:48:15 63° WNW 03:52:54 13° SSW visible
01 Jul 4.6 01:41:41 10° ENE 01:43:03 11° E 01:44:25 10° E visible
01 Jul 2.2 03:18:22 10° NNE 03:23:43 82° ESE 03:28:00 16° S visible
02 Jul 2.7 02:53:55 10° NNE 02:59:06 50° E 03:03:06 16° S visible
03 Jul 3.5 02:29:41 10° NNE 02:34:23 31° E 02:38:13 14° SSE visible
03 Jul 2.9 04:09:23 10° N 04:14:17 38° WNW 04:19:08 10° SW visible
04 Jul 4.1 02:05:49 10° NE 02:09:35 19° E 02:13:18 10° SE visible
04 Jul 2.3 03:44:35 10° N 03:49:50 61° WNW 03:54:23 14° SSW visible
05 Jul 4.5 01:42:59 10° ENE 01:44:41 11° E 01:46:21 10° ESE visible
05 Jul 2.1 03:19:57 10° NNE 03:25:19 84° ESE 03:29:29 17° SSW visible
06 Jul 2.7 02:55:30 10° NNE 03:00:42 52° E 03:04:35 17° S visible
